Time,TemperatureF,DewpointF,PressureIn,WindDirection,WindDirectionDegrees,WindSpeedMPH,WindSpeedGustMPH,Humidity,HourlyPrecipIn,Conditions,Clouds,dailyrainin,SolarRadiationWatts/m^2,SoftwareType,DateUTC
2013-09-10 00:00:00,78.1,73.6,29.98,SE,128,0.0,1.0,86,0.00,CLR,CLR,0.00,0.0,WeatherDisplay:10.37,2013-09-10 05:00:00,
2013-09-10 00:10:00,77.9,73.4,29.98,SE,139,0.0,0.0,86,0.00,CLR,CLR,0.00,0.0,WeatherDisplay:10.37,2013-09-10 05:10:00,
2013-09-10 00:20:00,77.7,73.2,29.98,SE,139,0.0,0.0,86,0.00,CLR,CLR,0.00,0.0,WeatherDisplay:10.37,2013-09-10 05:20:00,
2013-09-10 00:30:00,77.4,72.9,29.98,SE,139,0.0,0.0,86,0.00,CLR,CLR,0.00,0.0,WeatherDisplay:10.37,2013-09-10 05:30:00,
2013-09-10 00:40:00,77.4,72.9,29.98,SE,139,0.0,1.0,86,0.00,CLR,CLR,0.00,0.0,WeatherDisplay:10.37,2013-09-10 05:40:00,
2013-09-10 00:50:00,77.5,73.0,29.98,SE,138,0.0,0.0,86,0.00,CLR,CLR,0.00,0.0,WeatherDisplay:10.37,2013-09-10 05:50:00,
2013-09-10 01:00:00,77.3,72.8,29.98,SE,139,0.0,0.0,86,0.00,CLR,CLR,0.00,0.0,WeatherDisplay:10.37,2013-09-10 06:00:00,
2013-09-10 01:10:00,77.1,72.6,29.98,SE,139,0.0,0.0,86,0.00,CLR,CLR,0.00,0.0,WeatherDisplay:10.37,2013-09-10 06:10:00,
2013-09-10 01:20:00,77.1,72.9,29.98,SE,138,0.0,0.0,87,0.00,CLR,CLR,0.00,0.0,WeatherDisplay:10.37,2013-09-10 06:20:00,
2013-09-10 01:30:00,77.0,72.8,29.99,SE,138,0.0,0.0,87,0.00,CLR,CLR,0.00,0.0,WeatherDisplay:10.37,2013-09-10 06:30:00,
2013-09-10 01:40:00,77.0,72.5,29.99,SE,139,0.0,0.0,86,0.00,CLR,CLR,0.00,0.0,WeatherDisplay:10.37,2013-09-10 06:40:00,
2013-09-10 01:50:00,76.9,72.7,29.99,SE,138,0.0,1.0,87,0.00,CLR,CLR,0.00,0.0,WeatherDisplay:10.37,2013-09-10 06:50:00,
2013-09-10 02:00:00,77.2,72.7,29.99,SE,140,0.0,1.0,86,0.00,CLR,CLR,0.00,0.0,WeatherDisplay:10.37,2013-09-10 07:00:00,
2013-09-10 02:10:00,77.3,72.8,29.99,SE,142,0.0,1.0,86,0.00,CLR,CLR,0.00,0.0,WeatherDisplay:10.37,2013-09-10 07:10:00,
2013-09-10 02:20:00,77.3,72.5,29.99,SSE,152,0.0,1.0,85,0.00,CLR,CLR,0.00,0.0,WeatherDisplay:10.37,2013-09-10 07:20:00,
2013-09-10 02:30:00,77.3,72.5,29.99,SSE,152,0.0,0.0,85,0.00,CLR,CLR,0.00,0.0,WeatherDisplay:10.37,2013-09-10 07:30:00,
2013-09-10 02:40:00,77.2,72.7,29.99,SSE,152,0.0,0.0,86,0.00,CLR,CLR,0.00,0.0,WeatherDisplay:10.37,2013-09-10 07:40:00,
2013-09-10 02:50:00,77.1,72.6,29.99,SSE,152,0.0,0.0,86,0.00,CLR,CLR,0.00,0.0,WeatherDisplay:10.37,2013-09-10 07:50:00,
2013-09-10 03:00:00,77.2,72.7,29.99,SSE,152,0.0,0.0,86,0.00,CLR,CLR,0.00,0.0,WeatherDisplay:10.37,2013-09-10 08:00:00,
2013-09-10 03:10:00,77.1,72.2,29.99,SSE,152,0.0,0.0,85,0.00,OVC,OVC,0.00,0.0,WeatherDisplay:10.37,2013-09-10 08:10:00,
2013-09-10 03:20:00,76.9,72.4,30.00,SSE,152,0.0,0.0,86,0.00,OVC,OVC,0.00,0.0,WeatherDisplay:10.37,2013-09-10 08:20:00,
2013-09-10 03:30:00,76.9,72.4,30.00,SSE,152,0.0,0.0,86,0.00,OVC,OVC,0.00,0.0,WeatherDisplay:10.37,2013-09-10 08:30:00,
2013-09-10 03:40:00,76.6,72.1,30.00,SSE,152,0.0,0.0,86,0.00,OVC,OVC,0.00,0.0,WeatherDisplay:10.37,2013-09-10 08:40:00,
2013-09-10 03:50:00,76.6,72.1,30.00,SSE,157,0.0,1.0,86,0.00,OVC,OVC,0.00,0.0,WeatherDisplay:10.37,2013-09-10 08:50:00,
2013-09-10 04:00:00,76.2,72.0,30.00,South,176,0.0,0.0,87,0.00,OVC,OVC,0.00,0.0,WeatherDisplay:10.37,2013-09-10 09:00:00,
2013-09-10 04:10:00,76.1,71.9,30.00,South,173,0.0,0.0,87,0.00,SCT,SCT,0.00,0.0,WeatherDisplay:10.37,2013-09-10 09:10:00,
2013-09-10 04:20:00,75.8,71.7,30.01,SSE,160,0.0,1.0,87,0.00,SCT,SCT,0.00,0.0,WeatherDisplay:10.37,2013-09-10 09:20:00,
2013-09-10 04:30:00,75.9,71.8,30.01,SSE,150,0.0,1.0,87,0.00,CLR,CLR,0.00,0.0,WeatherDisplay:10.37,2013-09-10 09:30:00,
2013-09-10 04:40:00,75.8,71.7,30.01,SSE,156,0.0,1.0,87,0.00,CLR,CLR,0.00,0.0,WeatherDisplay:10.37,2013-09-10 09:40:00,
2013-09-10 04:50:00,75.7,71.6,30.01,SSE,161,0.0,1.0,87,0.00,CLR,CLR,0.00,0.0,WeatherDisplay:10.37,2013-09-10 09:50:00,
2013-09-10 05:00:00,75.7,71.6,30.01,SSE,152,0.0,0.0,87,0.00,CLR,CLR,0.00,0.0,WeatherDisplay:10.37,2013-09-10 10:00:00,
2013-09-10 05:10:00,75.6,71.5,30.02,SSE,152,0.0,1.0,87,0.00,SCT,SCT,0.00,0.0,WeatherDisplay:10.37,2013-09-10 10:10:00,
2013-09-10 05:20:00,75.5,71.3,30.02,SSE,158,0.0,1.0,87,0.00,SCT,SCT,0.00,0.0,WeatherDisplay:10.37,2013-09-10 10:20:00,
2013-09-10 05:30:00,75.3,71.2,30.02,SSE,154,0.0,1.0,87,0.00,BKN,BKN,0.00,0.0,WeatherDisplay:10.37,2013-09-10 10:30:00,
2013-09-10 05:40:00,75.0,71.2,30.03,SSE,153,0.0,0.0,88,0.00,BKN,BKN,0.00,0.0,WeatherDisplay:10.37,2013-09-10 10:40:00,
2013-09-10 05:50:00,74.9,71.1,30.03,SSE,153,0.0,0.0,88,0.00,FEW,FEW,0.00,0.0,WeatherDisplay:10.37,2013-09-10 10:50:00,
2013-09-10 06:00:00,74.9,71.1,30.03,SSE,153,0.0,0.0,88,0.00,FEW,FEW,0.00,0.0,WeatherDisplay:10.37,2013-09-10 11:00:00,
2013-09-10 06:10:00,74.8,71.0,30.03,SSE,153,0.0,0.0,88,0.00,FEW,FEW,0.00,0.0,WeatherDisplay:10.37,2013-09-10 11:10:00,
2013-09-10 06:20:00,74.8,71.0,30.04,SSE,154,0.0,0.0,88,0.00,FEW,FEW,0.00,0.0,WeatherDisplay:10.37,2013-09-10 11:20:00,
2013-09-10 06:30:00,74.8,71.0,30.04,SSE,153,0.0,0.0,88,0.00,BKN,BKN,0.00,0.0,WeatherDisplay:10.37,2013-09-10 11:30:00,
2013-09-10 06:40:00,74.7,70.9,30.04,SSE,153,0.0,0.0,88,0.00,BKN,BKN,0.00,0.0,WeatherDisplay:10.37,2013-09-10 11:40:00,
2013-09-10 06:50:00,74.7,70.9,30.05,SSE,153,0.0,0.0,88,0.00,OVC,OVC,0.00,0.0,WeatherDisplay:10.37,2013-09-10 11:50:00,
2013-09-10 07:00:00,74.6,71.1,30.05,ESE,111,1.0,2.0,89,0.00,OVC,OVC,0.00,0.0,WeatherDisplay:10.37,2013-09-10 12:00:00,
2013-09-10 07:10:00,74.5,71.0,30.05,ESE,116,1.0,3.0,89,0.00,SCT,SCT,0.00,0.0,WeatherDisplay:10.37,2013-09-10 12:10:00,
2013-09-10 07:20:00,74.5,71.0,30.06,ESE,112,1.0,3.0,89,0.00,SCT,SCT,0.00,0.0,WeatherDisplay:10.37,2013-09-10 12:20:00,
2013-09-10 07:30:00,74.5,71.0,30.06,ESE,120,0.0,3.0,89,0.00,SCT,SCT,0.00,0.0,WeatherDisplay:10.37,2013-09-10 12:30:00,
2013-09-10 07:40:00,74.6,71.1,30.07,ESE,116,1.0,3.0,89,0.00,CLR,CLR,0.00,0.0,WeatherDisplay:10.37,2013-09-10 12:40:00,
2013-09-10 07:50:00,75.0,71.2,30.07,ESE,115,0.0,3.0,88,0.00,CLR,CLR,0.00,0.0,WeatherDisplay:10.37,2013-09-10 12:50:00,
2013-09-10 08:00:00,76.0,71.5,30.07,ESE,113,1.0,4.0,86,0.00,CLR,CLR,0.00,0.0,WeatherDisplay:10.37,2013-09-10 13:00:00,
2013-09-10 08:20:00,77.9,72.3,30.07,SSW,199,0.0,3.0,83,0.00,CLR,CLR,0.00,0.0,WeatherDisplay:10.37,2013-09-10 13:20:00,
2013-09-10 08:30:00,78.7,72.4,30.07,SSW,204,1.0,3.0,81,0.00,CLR,CLR,0.00,0.0,WeatherDisplay:10.37,2013-09-10 13:30:00,
2013-09-10 08:40:00,79.2,72.4,30.07,SSW,198,1.0,4.0,80,0.00,CLR,CLR,0.00,0.0,WeatherDisplay:10.37,2013-09-10 13:40:00,
2013-09-10 08:50:00,79.9,72.8,30.07,SSW,200,1.0,2.0,79,0.00,CLR,CLR,0.00,0.0,WeatherDisplay:10.37,2013-09-10 13:50:00,
2013-09-10 09:00:00,80.1,73.3,30.07,SW,226,0.0,2.0,80,0.00,CLR,CLR,0.00,0.0,WeatherDisplay:10.37,2013-09-10 14:00:00,
2013-09-10 09:10:00,81.1,73.5,30.08,SSW,195,1.0,3.0,78,0.00,CLR,CLR,0.00,0.0,WeatherDisplay:10.37,2013-09-10 14:10:00,
2013-09-10 09:20:00,82.4,74.0,30.07,SSE,163,0.0,3.0,76,0.00,CLR,CLR,0.00,0.0,WeatherDisplay:10.37,2013-09-10 14:20:00,
2013-09-10 09:30:00,83.3,73.7,30.08,SE,144,3.0,6.0,73,0.00,CLR,CLR,0.00,0.0,WeatherDisplay:10.37,2013-09-10 14:30:00,
2013-09-10 09:40:00,84.1,74.5,30.08,SE,145,0.0,3.0,73,0.00,CLR,CLR,0.00,0.0,WeatherDisplay:10.37,2013-09-10 14:40:00,
2013-09-10 09:50:00,85.6,75.1,30.08,SSE,157,0.0,3.0,71,0.00,CLR,CLR,0.00,0.0,WeatherDisplay:10.37,2013-09-10 14:50:00,
2013-09-10 10:00:00,86.8,74.5,30.08,West,275,1.0,3.0,67,0.00,CLR,CLR,0.00,0.0,WeatherDisplay:10.37,2013-09-10 15:00:00,
2013-09-10 10:10:00,87.3,74.5,30.08,NW,313,0.0,2.0,66,0.00,CLR,CLR,0.00,0.0,WeatherDisplay:10.37,2013-09-10 15:10:00,
2013-09-10 10:20:00,88.1,75.3,30.09,East,99,1.0,2.0,66,0.00,CLR,CLR,0.00,0.0,WeatherDisplay:10.37,2013-09-10 15:20:00,
2013-09-10 10:30:00,88.6,74.4,30.09,NNW,347,2.0,4.0,63,0.00,CLR,CLR,0.00,0.0,WeatherDisplay:10.37,2013-09-10 15:30:00,
2013-09-10 10:40:00,89.4,75.6,30.08,WSW,242,0.0,2.0,64,0.00,CLR,CLR,0.00,0.0,WeatherDisplay:10.37,2013-09-10 15:40:00,
2013-09-10 10:50:00,91.2,75.8,30.08,WSW,246,0.0,2.0,61,0.00,CLR,CLR,0.00,0.0,WeatherDisplay:10.37,2013-09-10 15:50:00,
2013-09-10 11:00:00,90.9,76.0,30.09,South,184,1.0,3.0,62,0.00,CLR,CLR,0.00,0.0,WeatherDisplay:10.37,2013-09-10 16:00:00,
2013-09-10 11:10:00,91.0,76.6,30.09,ESE,104,2.0,4.0,63,0.00,CLR,CLR,0.00,0.0,WeatherDisplay:10.37,2013-09-10 16:10:00,
2013-09-10 11:20:00,91.7,76.8,30.08,East,86,2.0,4.0,62,0.00,CLR,CLR,0.00,0.0,WeatherDisplay:10.37,2013-09-10 16:20:00,
2013-09-10 11:30:00,91.2,76.4,30.08,South,186,1.0,4.0,62,0.00,CLR,CLR,0.00,0.0,WeatherDisplay:10.37,2013-09-10 16:30:00,
2013-09-10 11:40:00,91.9,75.5,30.08,ENE,63,2.0,5.0,59,0.00,BKN,BKN,0.00,0.0,WeatherDisplay:10.37,2013-09-10 16:40:00,
2013-09-10 11:50:00,91.8,76.9,30.08,East,97,2.0,5.0,62,0.00,BKN,BKN,0.00,0.0,WeatherDisplay:10.37,2013-09-10 16:50:00,
2013-09-10 12:00:00,92.4,76.0,30.08,SSW,199,2.0,4.0,59,0.00,SCT,SCT,0.00,0.0,WeatherDisplay:10.37,2013-09-10 17:00:00,
2013-09-10 12:10:00,92.9,75.9,30.08,SSE,149,2.0,4.0,58,0.00,SCT,SCT,0.00,0.0,WeatherDisplay:10.37,2013-09-10 17:10:00,
2013-09-10 12:20:00,93.9,75.3,30.07,East,89,2.0,5.0,55,0.00,FEW,FEW,0.00,0.0,WeatherDisplay:10.37,2013-09-10 17:20:00,
2013-09-10 12:30:00,93.8,76.3,30.07,SE,124,1.0,4.0,57,0.00,FEW,FEW,0.00,0.0,WeatherDisplay:10.37,2013-09-10 17:30:00,
2013-09-10 12:40:00,93.8,76.2,30.07,SSE,150,2.0,4.0,57,0.00,CLR,CLR,0.00,0.0,WeatherDisplay:10.37,2013-09-10 17:40:00,
2013-09-10 12:50:00,93.5,78.0,30.07,SSE,155,2.0,5.0,61,0.00,CLR,CLR,0.00,0.0,WeatherDisplay:10.37,2013-09-10 17:50:00,
2013-09-10 13:00:00,94.5,76.3,30.07,ESE,111,2.0,7.0,56,0.00,CLR,CLR,0.00,0.0,WeatherDisplay:10.37,2013-09-10 18:00:00,
2013-09-10 13:10:00,95.2,75.9,30.07,SSE,148,2.0,4.0,54,0.00,CLR,CLR,0.00,0.0,WeatherDisplay:10.37,2013-09-10 18:10:00,
2013-09-10 13:20:00,94.8,75.0,30.07,SSE,166,1.0,5.0,53,0.00,CLR,CLR,0.00,0.0,WeatherDisplay:10.37,2013-09-10 18:20:00,
2013-09-10 13:30:00,96.2,75.7,30.07,ESE,107,2.0,4.0,52,0.00,CLR,CLR,0.00,0.0,WeatherDisplay:10.37,2013-09-10 18:30:00,
2013-09-10 13:40:00,96.1,73.9,30.06,ESE,111,3.0,6.0,49,0.00,FEW,FEW,0.00,0.0,WeatherDisplay:10.37,2013-09-10 18:40:00,
2013-09-10 13:50:00,96.1,74.5,30.06,SE,141,1.0,5.0,50,0.00,FEW,FEW,0.00,0.0,WeatherDisplay:10.37,2013-09-10 18:50:00,
2013-09-10 14:00:00,96.2,76.3,30.05,SE,132,2.0,4.0,53,0.00,FEW,FEW,0.00,0.0,WeatherDisplay:10.37,2013-09-10 19:00:00,
2013-09-10 14:10:00,96.1,75.0,30.05,SSE,161,2.0,5.0,51,0.00,FEW,FEW,0.00,0.0,WeatherDisplay:10.37,2013-09-10 19:10:00,
2013-09-10 14:20:00,96.0,75.0,30.04,ESE,106,2.0,6.0,51,0.00,CLR,CLR,0.00,0.0,WeatherDisplay:10.37,2013-09-10 19:20:00,
2013-09-10 14:30:00,95.8,74.8,30.03,ESE,112,2.0,6.0,51,0.00,CLR,CLR,0.00,0.0,WeatherDisplay:10.37,2013-09-10 19:30:00,
2013-09-10 14:40:00,96.8,75.7,30.03,East,97,2.0,4.0,51,0.00,FEW,FEW,0.00,0.0,WeatherDisplay:10.37,2013-09-10 19:40:00,
2013-09-10 14:50:00,97.4,76.3,30.03,SE,144,2.0,5.0,51,0.00,FEW,FEW,0.00,0.0,WeatherDisplay:10.37,2013-09-10 19:50:00,
2013-09-10 15:00:00,96.6,75.5,30.03,SE,131,1.0,5.0,51,0.00,CLR,CLR,0.00,0.0,WeatherDisplay:10.37,2013-09-10 20:00:00,
2013-09-10 15:10:00,97.3,73.7,30.02,ESE,111,2.0,4.0,47,0.00,CLR,CLR,0.00,0.0,WeatherDisplay:10.37,2013-09-10 20:10:00,
2013-09-10 15:20:00,96.5,73.6,30.02,South,182,2.0,4.0,48,0.00,CLR,CLR,0.00,0.0,WeatherDisplay:10.37,2013-09-10 20:20:00,
2013-09-10 15:30:00,94.4,75.2,30.03,SSW,192,3.0,7.0,54,0.00,CLR,CLR,0.00,0.0,WeatherDisplay:10.37,2013-09-10 20:30:00,
2013-09-10 15:40:00,92.5,75.0,30.03,SSE,160,2.0,7.0,57,0.00,CLR,CLR,0.00,0.0,WeatherDisplay:10.37,2013-09-10 20:40:00,
2013-09-10 15:50:00,90.1,74.8,30.03,SSW,193,1.0,6.0,61,0.00,CLR,CLR,0.00,0.0,WeatherDisplay:10.37,2013-09-10 20:50:00,
2013-09-10 16:00:00,88.7,75.0,30.03,SSW,203,0.0,5.0,64,0.00,CLR,CLR,0.00,0.0,WeatherDisplay:10.37,2013-09-10 21:00:00,
2013-09-10 16:10:00,88.1,74.4,30.02,SSW,207,1.0,3.0,64,0.00,CLR,CLR,0.00,0.0,WeatherDisplay:10.37,2013-09-10 21:10:00,
2013-09-10 16:20:00,88.8,74.1,30.02,South,171,1.0,4.0,62,0.00,CLR,CLR,0.00,0.0,WeatherDisplay:10.37,2013-09-10 21:20:00,
2013-09-10 16:30:00,89.7,74.9,30.02,SSE,159,1.0,4.0,62,0.00,CLR,CLR,0.00,0.0,WeatherDisplay:10.37,2013-09-10 21:30:00,
2013-09-10 16:40:00,89.8,76.9,30.02,SSE,155,2.0,4.0,66,0.00,CLR,CLR,0.00,0.0,WeatherDisplay:10.37,2013-09-10 21:40:00,
2013-09-10 16:50:00,89.5,77.1,30.02,SSE,167,1.0,3.0,67,0.00,CLR,CLR,0.00,0.0,WeatherDisplay:10.37,2013-09-10 21:50:00,
2013-09-10 17:00:00,88.9,77.4,30.03,South,173,1.0,4.0,69,0.00,CLR,CLR,0.00,0.0,WeatherDisplay:10.37,2013-09-10 22:00:00,
2013-09-10 17:10:00,89.3,78.7,30.02,SE,137,1.0,2.0,71,0.00,CLR,CLR,0.00,0.0,WeatherDisplay:10.37,2013-09-10 22:10:00,
2013-09-10 17:20:00,89.7,78.2,30.03,SSE,158,2.0,5.0,69,0.00,BKN,BKN,0.00,0.0,WeatherDisplay:10.37,2013-09-10 22:20:00,
2013-09-10 17:30:00,89.5,78.4,30.03,SE,124,2.0,5.0,70,0.00,BKN,BKN,0.00,0.0,WeatherDisplay:10.37,2013-09-10 22:30:00,
2013-09-10 17:40:00,88.2,78.1,30.03,SE,127,3.0,8.0,72,0.00,BKN,BKN,0.00,0.0,WeatherDisplay:10.37,2013-09-10 22:40:00,
2013-09-10 17:50:00,88.0,77.8,30.04,SE,131,2.0,6.0,72,0.00,BKN,BKN,0.00,0.0,WeatherDisplay:10.37,2013-09-10 22:50:00,
2013-09-10 18:00:00,87.6,77.0,30.04,ESE,122,2.0,7.0,71,0.00,OVC,OVC,0.00,0.0,WeatherDisplay:10.37,2013-09-10 23:00:00,
2013-09-10 18:10:00,87.0,76.9,30.04,SE,144,1.0,6.0,72,0.00,OVC,OVC,0.00,0.0,WeatherDisplay:10.37,2013-09-10 23:10:00,
2013-09-10 18:20:00,86.9,77.2,30.04,SSE,150,1.0,4.0,73,0.00,BKN,BKN,0.00,0.0,WeatherDisplay:10.37,2013-09-10 23:20:00,
2013-09-10 18:30:00,86.4,77.5,30.04,South,185,1.0,6.0,75,0.00,BKN,BKN,0.00,0.0,WeatherDisplay:10.37,2013-09-10 23:30:00,
2013-09-10 18:40:00,85.6,75.9,30.04,South,187,1.0,5.0,73,0.00,SCT,SCT,0.00,0.0,WeatherDisplay:10.37,2013-09-10 23:40:00,
2013-09-10 18:50:00,84.6,75.0,30.04,SW,219,2.0,5.0,73,0.00,SCT,SCT,0.00,0.0,WeatherDisplay:10.37,2013-09-10 23:50:00,
2013-09-10 19:00:00,83.3,73.8,30.05,SSW,201,1.0,5.0,73,0.00,CLR,CLR,0.00,0.0,WeatherDisplay:10.37,2013-09-11 00:00:00,
2013-09-10 19:10:00,82.3,73.2,30.05,South,184,2.0,6.0,74,0.00,CLR,CLR,0.00,0.0,WeatherDisplay:10.37,2013-09-11 00:10:00,
2013-09-10 19:20:00,81.4,73.1,30.05,SSW,208,1.0,3.0,76,0.00,CLR,CLR,0.00,0.0,WeatherDisplay:10.37,2013-09-11 00:20:00,
2013-09-10 19:30:00,80.8,72.9,30.06,South,188,0.0,1.0,77,0.00,CLR,CLR,0.00,0.0,WeatherDisplay:10.37,2013-09-11 00:30:00,
2013-09-10 19:40:00,80.3,73.2,30.06,South,185,0.0,3.0,79,0.00,CLR,CLR,0.00,0.0,WeatherDisplay:10.37,2013-09-11 00:40:00,
2013-09-10 19:50:00,79.7,73.0,30.06,ESE,121,0.0,1.0,80,0.00,CLR,CLR,0.00,0.0,WeatherDisplay:10.37,2013-09-11 00:50:00,
2013-09-10 20:00:00,79.4,73.1,30.06,SE,124,0.0,2.0,81,0.00,CLR,CLR,0.00,0.0,WeatherDisplay:10.37,2013-09-11 01:00:00,
2013-09-10 20:10:00,79.5,73.2,30.07,SE,129,1.0,4.0,81,0.00,CLR,CLR,0.00,0.0,WeatherDisplay:10.37,2013-09-11 01:10:00,
2013-09-10 20:20:00,79.2,72.9,30.07,SE,140,1.0,2.0,81,0.00,CLR,CLR,0.00,0.0,WeatherDisplay:10.37,2013-09-11 01:20:00,
2013-09-10 20:30:00,79.0,73.0,30.07,ESE,117,1.0,3.0,82,0.00,CLR,CLR,0.00,0.0,WeatherDisplay:10.37,2013-09-11 01:30:00,
2013-09-10 20:40:00,78.6,73.0,30.07,ESE,118,0.0,2.0,83,0.00,CLR,CLR,0.00,0.0,WeatherDisplay:10.37,2013-09-11 01:40:00,
2013-09-10 20:50:00,78.5,72.9,30.07,ESE,121,1.0,3.0,83,0.00,CLR,CLR,0.00,0.0,WeatherDisplay:10.37,2013-09-11 01:50:00,
2013-09-10 21:00:00,78.2,72.6,30.07,ESE,120,0.0,2.0,83,0.00,CLR,CLR,0.00,0.0,WeatherDisplay:10.37,2013-09-11 02:00:00,
2013-09-10 21:10:00,77.8,72.6,30.08,ESE,112,0.0,1.0,84,0.00,CLR,CLR,0.00,0.0,WeatherDisplay:10.37,2013-09-11 02:10:00,
2013-09-10 21:20:00,77.3,72.4,30.07,ESE,111,0.0,1.0,85,0.00,CLR,CLR,0.00,0.0,WeatherDisplay:10.37,2013-09-11 02:20:00,
2013-09-10 21:30:00,77.2,72.4,30.08,ESE,111,0.0,1.0,85,0.00,CLR,CLR,0.00,0.0,WeatherDisplay:10.37,2013-09-11 02:30:00,
2013-09-10 21:40:00,77.0,72.1,30.08,ESE,112,0.0,2.0,85,0.00,CLR,CLR,0.00,0.0,WeatherDisplay:10.37,2013-09-11 02:40:00,
2013-09-10 21:50:00,76.7,72.2,30.08,ESE,112,0.0,2.0,86,0.00,CLR,CLR,0.00,0.0,WeatherDisplay:10.37,2013-09-11 02:50:00,
2013-09-10 22:00:00,76.4,71.9,30.08,ESE,118,0.0,1.0,86,0.00,CLR,CLR,0.00,0.0,WeatherDisplay:10.37,2013-09-11 03:00:00,
2013-09-10 22:10:00,76.2,71.7,30.08,SE,127,0.0,2.0,86,0.00,CLR,CLR,0.00,0.0,WeatherDisplay:10.37,2013-09-11 03:10:00,
2013-09-10 22:20:00,76.1,71.6,30.08,SE,135,0.0,2.0,86,0.00,CLR,CLR,0.00,0.0,WeatherDisplay:10.37,2013-09-11 03:20:00,
2013-09-10 22:30:00,75.8,71.3,30.08,ESE,116,0.0,1.0,86,0.00,CLR,CLR,0.00,0.0,WeatherDisplay:10.37,2013-09-11 03:30:00,
2013-09-10 22:40:00,75.5,71.4,30.08,SSE,148,0.0,1.0,87,0.00,CLR,CLR,0.00,0.0,WeatherDisplay:10.37,2013-09-11 03:40:00,
2013-09-10 22:50:00,75.4,71.6,30.08,SE,129,1.0,3.0,88,0.00,CLR,CLR,0.00,0.0,WeatherDisplay:10.37,2013-09-11 03:50:00,
2013-09-10 23:00:00,75.4,71.6,30.08,ESE,120,0.0,3.0,88,0.00,CLR,CLR,0.00,0.0,WeatherDisplay:10.37,2013-09-11 04:00:00,
2013-09-10 23:10:00,75.1,71.3,30.08,ESE,122,0.0,1.0,88,0.00,CLR,CLR,0.00,0.0,WeatherDisplay:10.37,2013-09-11 04:10:00,
2013-09-10 23:20:00,74.8,71.0,30.08,SE,136,0.0,1.0,88,0.00,CLR,CLR,0.00,0.0,WeatherDisplay:10.37,2013-09-11 04:20:00,
2013-09-10 23:30:00,74.6,71.1,30.08,ESE,112,0.0,2.0,89,0.00,CLR,CLR,0.00,0.0,WeatherDisplay:10.37,2013-09-11 04:30:00,
2013-09-10 23:40:00,74.6,71.1,30.08,ESE,116,0.0,1.0,89,0.00,CLR,CLR,0.00,0.0,WeatherDisplay:10.37,2013-09-11 04:40:00,
2013-09-10 23:50:00,74.4,70.9,30.08,ESE,112,1.0,2.0,89,0.00,CLR,CLR,0.00,0.0,WeatherDisplay:10.37,2013-09-11 04:50:00,